Sheridan, WY

9:20 PM MDT on September 23, 2014 (GMT -0600)
Johnson County | Change Station
CLOSE
Current Station
Airport
Location: Buffalo,
Elevation: 4967 ft
Nearby Weather Stations

Elev 4967 ft 44.38 °N, 106.72 °W | Updated 27 minutes ago

Clear
Clear
62 °F
Feels Like 62 °F
N
7
Wind Variable Wind from West

Today
High -- | Low -- °F
--% Chance of Precip.
Yesterday
High -- | Low -- °F
Precip. -- in
6:56 AM 7:03 PM
Waning Crescent, 0% visible
Pressure 29.99 in
Visibility 10.0 miles
Clouds Clear
Dew Point 44 °F
Humidity 52%
Rainfall 0.00 in
Snow Depth 0 in , 0 in , 1 in
UV 0 out of 12
Pollen 5.00 out of 12
Air Quality Not available.
Flu Activity Not available.
METAR KBYG 240253Z AUTO 27006KT 10SM CLR 17/07 A3013 RMK AO2 SLP154 T01670067 53010 $

More Conditions Fewer Conditions

Pressure 29.99 in
Visibility 10.0 miles
Clouds Clear
Dew Point 44 °F
Humidity 52%
Rainfall 0.00 in
Snow Depth 0 in , 0 in , 1 in
UV 0 out of 12
Pollen 5.00 out of 12
Air Quality Not available.
Flu Activity Not available.
METAR KBYG 240253Z AUTO 27006KT 10SM CLR 17/07 A3013 RMK AO2 SLP154 T01670067 53010 $

More Conditions Fewer Conditions

10-Day Weather Forecast

Almanac

Astronomy

Sep. 23, 2014 Rise Set
Actual Time 6:56 AM MDT 7:03 PM MDT
Civil Twilight 6:27 AM MDT 7:32 PM MDT
Nautical Twilight 5:52 AM MDT 8:06 PM MDT
Astronomical Twilight 5:17 AM MDT 8:41 PM MDT
Moon 6:22 AM MDT (9/23) 6:42 PM MDT (9/23)
Length of Visible Light 13h 05m
Length of Day
12h 07m
Tomorrow will be 3m 5s shorter.
Waning Crescent, 0% of the Moon is Illuminated
Today
Waning Crescent
Sep 24
New
Oct 1
First Quarter
Oct 8
Full
Oct 15
Last Quarter

Today's Extremes

State Highs State Lows

Community

WunderPhotos

Upload Photos

1,755,877 photos uploaded!

WunderBlogs® & News

Nearby

Snow Depth

Station Depth Elevation
Phillips Bench 0 in 8200 ft
Gros Ventre Summit 0 in 8750 ft
Willow Creek 1 in 8450 ft
Blind Bull Summit 1 in 8900 ft
Loomis Park 0 in 8240 ft

Earthquake Activity

City Distance Mag. Time & Date
No recent earthquake activity has been reported nearby.
Minimum magnitude displayed is 2.5.

Coastal Water Temperatures

Place Temperature
No Stations Reporting

Nearby Weather Stations